Wind_Speed
50 49 50 49 47 47 49 50 51 50 49 50 46 45 44 44 45 47 46 43 39 34 29 31 22 17 15 12 15 16 14 10 6 6 8 10 13 10 8 7 14 17 16 16
53 54 54 53 54 53 56 58 59 60 56 59 54 46 44 43 49 46 47 48 45 40 34 34 29 21 19 15 14 18 17 15 12 10 9 9 14 12 11 9 8 18 21 21
57 57 55 57 56 57 59 64 67 69 70 67 59 51 48 48 47 44 43 52 50 46 41 37 31 27 22 18 17 17 20 17 16 13 13 11 8 5 9 8 8 16 19 25
57 59 57 57 59 61 61 70 73 75 73 66 64 48 53 46 51 47 43 47 54 51 46 41 35 31 25 22 19 19 17 20 18 17 15 14 12 7 11 16 14 11 20 23
62 60 61 62 64 63 66 73 76 70 67 58 56 49 54 52 51 50 48 47 54 56 51 46 40 35 30 28 23 19 18 22 20 20 19 16 16 14 14 18 20 19 16 24
63 63 63 63 63 66 70 71 68 62 59 54 49 46 52 58 54 52 51 51 51 58 55 49 44 39 35 32 28 23 23 22 20 21 22 20 20 21 19 17 19 20 18 15
67 68 67 67 69 70 72 68 56 53 50 46 46 48 44 57 55 55 56 53 49 50 56 53 49 44 41 36 33 29 25 23 23 24 23 22 23 24 28 20 20 17 19 17
70 73 71 72 72 71 72 64 48 44 36 38 43 39 43 56 62 59 57 54 50 45 48 52 52 48 45 41 38 33 30 27 26 25 24 25 24 25 26 24 19 22 19 16
70 73 77 77 77 75 72 60 44 37 30 34 39 34 48 54 65 60 56 55 53 48 50 58 57 53 50 45 41 36 35 33 30 26 25 26 25 27 22 19 21 22 18 13
71 72 76 81 79 79 72 57 44 36 26 27 36 37 46 54 64 60 60 58 56 53 54 51 57 57 51 48 44 39 39 39 32 29 27 27 28 29 23 23 20 24 24 23
71 73 77 81 81 82 70 52 44 33 24 25 29 33 46 55 59 64 63 60 58 58 58 52 53 56 51 50 48 44 43 42 34 31 31 28 31 29 25 28 25 17 15 23
71 73 76 79 80 81 67 50 43 31 24 25 22 36 47 54 58 64 62 61 59 60 63 54 53 49 48 49 49 49 46 42 33 30 28 28 33 32 28 24 28 18 22 29
73 73 75 78 82 74 65 49 42 31 22 23 21 39 45 54 58 63 65 66 63 62 64 58 56 53 53 52 53 53 47 42 33 34 30 30 30 29 27 26 26 30 30 37
74 74 77 79 77 67 56 46 39 29 23 18 29 40 45 50 56 63 66 66 65 66 63 60 58 57 55 51 50 50 46 46 41 33 24 18 19 27 26 33 35 38 40 46
74 75 78 80 74 62 51 43 33 28 22 19 25 35 38 48 51 58 63 63 65 63 62 60 59 58 55 50 45 50 53 49 44 39 38 38 44 31 28 31 34 35 41 46
77 77 80 74 68 56 44 38 29 25 21 18 27 25 36 41 51 54 60 64 63 59 59 59 16 58 45 44 46 51 54 54 53 45 36 39 37 30 28 23 33 31 39 37
79 79 76 65 60 48 40 33 25 20 18 21 23 26 33 39 50 56 58 59 60 63 61 60 59 45 21 53 47 48 45 49 54 51 46 41 59 42 35 37 33 28 37 24
84 78 65 58 52 42 33 28 24 17 16 18 21 25 18 21 32 38 42 55 60 61 62 60 55 47 51 61 47 35 48 56 55 53 48 51 56 57 41 37 38 30 34 28
83 72 57 51 45 35 26 22 27 22 20 20 19 18 29 28 27 40 46 53 59 61 61 63 57 55 50 54 59 49 48 60 65 53 43 48 58 57 50 47 43 40 41 33
74 61 51 45 39 24 16 22 27 28 20 14 15 14 17 26 29 38 41 52 57 58 60 64 66 73 61 60 56 63 54 48 48 35 37 40 50 44 49 44 44 42 43 40
60 51 46 43 34 16 27 32 33 32 25 28 26 21 18 21 34 39 43 47 56 60 59 63 65 70 73 68 58 61 60 53 43 38 29 31 40 45 52 50 46 42 42 44
51 43 39 36 30 12 40 39 38 32 22 26 34 34 36 37 36 33 35 46 52 59 61 62 63 64 63 60 59 57 52 52 47 43 37 31 31 34 39 43 39 45 45 44
46 40 33 29 25 23 51 43 43 38 27 36 36 42 41 42 39 34 32 37 52 56 59 59 59 64 62 58 56 64 57 59 50 48 45 48 51 35 44 43 45 45 48 37
40 34 30 25 19 28 52 53 46 48 46 46 45 45 46 48 44 35 41 44 47 56 55 58 50 57 61 61 62 64 63 59 48 43 43 48 53 52 51 51 44 47 47 45
32 29 25 25 25 24 42 59 53 51 50 51 48 45 47 47 46 45 38 42 44 48 51 54 52 45 59 63 63 65 65 56 40 44 42 43 47 51 55 55 55 53 51 56
27 24 24 22 22 16 17 53 55 55 52 51 49 49 44 41 43 37 38 38 43 45 52 55 56 53 58 62 67 68 63 57 48 47 46 50 57 55 60 64 63 61 60 50
Wind_Direction
313 309 305 305 301 300 300 298 294 293 287 281 271 263 253 253 251 245 245 245 244 246 251 264 265 265 267 259 264 255 248 253 272 311 332 344 351 329 317 265 233 217 207 209
316 309 308 304 303 302 302 298 297 293 286 278 271 263 254 244 250 244 242 243 242 241 240 250 259 256 265 267 261 262 256 252 259 281 289 327 344 333 313 317 267 232 226 217
314 310 308 307 305 303 302 299 296 294 287 280 267 256 252 241 242 244 239 241 241 239 237 238 244 254 254 255 261 260 261 258 257 268 277 296 334 321 295 301 249 224 232 225
312 310 310 308 306 304 302 299 299 294 285 279 267 249 247 244 235 238 239 235 239 238 237 236 237 244 248 246 251 261 262 261 255 260 267 286 294 291 278 288 281 254 242 240
312 310 312 311 308 307 304 305 300 292 285 276 266 247 237 235 235 230 233 233 233 235 236 233 232 238 243 247 250 252 242 254 253 253 260 269 286 291 278 293 279 282 274 255
312 311 312 309 306 306 307 306 299 290 282 274 262 248 230 231 229 227 228 231 231 231 233 233 234 233 237 242 243 244 249 248 250 253 257 268 281 291 286 283 272 280 281 278
313 313 313 311 310 310 312 310 303 292 280 269 257 241 225 224 225 227 227 230 231 232 231 232 234 234 235 237 241 249 252 250 250 252 256 264 278 290 290 284 284 262 267 262
312 312 312 313 312 314 317 315 309 295 278 262 251 236 224 217 221 223 225 225 228 232 234 233 232 234 235 236 238 246 254 256 254 254 255 262 274 287 293 283 257 256 269 262
313 313 313 315 316 319 322 320 314 302 276 253 240 232 216 214 218 217 220 221 223 225 230 229 230 233 232 235 239 243 251 254 253 254 259 262 273 278 280 286 238 243 225 231
314 314 314 315 319 322 324 321 318 308 278 248 238 225 217 217 215 215 213 215 218 220 229 230 230 233 233 234 237 241 247 253 250 254 259 264 270 270 267 272 248 237 254 266
314 314 315 316 320 322 324 320 317 309 275 250 243 223 217 216 212 212 212 213 215 218 224 227 229 233 234 235 239 241 245 252 248 254 258 265 269 270 268 267 256 264 300 314
313 313 315 317 318 320 322 317 314 304 269 249 230 218 209 213 211 209 210 214 214 218 225 223 226 231 235 235 236 242 246 252 249 256 265 263 266 272 274 263 249 237 293 324
312 312 315 317 316 319 319 314 309 300 263 243 226 219 211 210 209 210 208 214 218 221 224 222 225 230 233 234 233 239 242 245 241 241 241 249 260 267 263 258 253 260 284 301
311 312 314 315 314 313 309 307 304 285 260 242 225 220 212 208 208 207 209 214 217 221 224 224 227 231 235 236 237 235 236 240 240 224 230 246 276 270 279 271 266 270 277 294
311 312 315 313 310 309 309 304 294 279 259 241 230 226 217 208 209 207 207 208 214 220 224 225 229 232 233 236 241 235 238 240 232 242 260 284 280 274 281 272 274 274 277 281
312 315 315 309 305 307 305 297 284 264 233 224 229 234 221 211 211 210 206 208 211 216 221 220 203 248 244 251 241 242 241 242 247 247 251 238 257 266 268 270 274 271 272 283
311 314 313 304 303 305 300 292 264 245 214 214 221 221 219 213 215 213 210 211 212 214 216 219 219 224 221 247 243 243 247 251 251 251 250 239 244 258 262 270 279 262 267 285
310 313 309 301 302 302 297 280 239 194 188 203 207 216 208 215 221 219 217 217 215 214 218 222 216 206 215 228 227 228 237 249 249 250 252 241 245 249 244 263 263 262 271 269
310 310 304 299 300 300 289 248 215 194 168 166 167 177 198 212 213 215 218 220 217 215 214 218 213 210 215 226 223 219 232 238 246 248 239 238 239 246 249 254 253 264 263 265
307 305 299 297 294 293 241 219 188 172 166 172 170 174 189 208 208 222 222 222 220 217 215 215 215 214 217 223 223 222 234 236 242 242 235 234 234 239 247 249 247 250 246 260
301 296 297 295 290 280 210 182 167 172 168 176 197 191 192 210 216 222 230 229 223 218 218 220 219 219 222 225 226 227 229 235 237 236 229 238 253 257 258 259 256 235 242 260
295 292 285 284 284 225 188 178 171 172 173 204 209 197 198 205 220 226 233 227 225 224 221 220 222 222 225 227 228 232 231 230 223 229 220 235 228 227 241 235 223 236 253 265
288 286 274 271 259 221 189 186 179 174 195 214 214 208 215 220 224 232 240 240 231 225 220 222 225 226 226 224 221 222 221 219 229 231 225 229 227 242 236 229 237 247 255 263
283 276 266 256 240 218 195 195 191 187 195 204 214 221 228 234 232 242 240 235 233 227 223 223 226 231 226 223 219 220 224 226 225 229 230 232 227 242 245 248 242 253 262 269
273 264 253 239 224 223 205 196 201 202 205 208 218 225 233 239 246 249 244 230 227 224 224 224 224 228 228 222 221 219 226 225 224 226 217 219 226 233 242 235 237 251 263 266
256 249 233 220 211 212 216 208 210 214 215 219 227 231 245 243 235 246 243 244 229 232 229 225 228 231 231 225 221 224 228 225 217 218 220 230 231 231 234 238 242 251 256 256
Height
10902 10898 10894 10892 10890 10888 10884 10882 10880 10880 10881 10880 10884 10888 10893 10893 10897 10903 10906 10911 10914 10918 10923 10924 10928 10930 10931 10932 10933 10934 10935 10935 10935 10935 10933 10931 10930 10929 10928 10928 10928 10930 10931 10933
10891 10884 10881 10879 10875 10874 10870 10864 10863 10862 10865 10861 10866 10875 10878 10883 10880 10889 10895 10897 10903 10909 10912 10915 10919 10923 10925 10926 10927 10928 10929 10930 10931 10931 10931 10930 10928 10926 10925 10925 10924 10926 10927 10928
10879 10874 10872 10866 10862 10859 10854 10846 10841 10841 10837 10840 10847 10858 10862 10866 10870 10875 10883 10884 10889 10896 10901 10906 10911 10914 10917 10919 10920 10922 10923 10925 10926 10926 10926 10926 10926 10924 10922 10922 10921 10921 10922 10924
10871 10863 10860 10856 10850 10844 10839 10825 10822 10815 10811 10815 10817 10840 10841 10852 10856 10862 10869 10874 10875 10882 10890 10896 10901 10906 10909 10912 10913 10915 10917 10919 10920 10920 10920 10921 10920 10920 10919 10918 10919 10919 10919 10920
10858 10853 10847 10841 10834 10828 10822 10809 10798 10791 10786 10790 10797 10813 10824 10831 10839 10847 10853 10858 10862 10867 10875 10883 10890 10896 10902 10903 10905 10906 10908 10911 10913 10914 10914 10915 10915 10914 10915 10914 10914 10914 10915 10916
10847 10841 10837 10831 10823 10815 10805 10794 10778 10769 10766 10766 10775 10787 10803 10808 10822 10832 10837 10843 10848 10853 10862 10872 10879 10886 10891 10894 10897 10898 10901 10903 10905 10907 10907 10907 10908 10907 10908 10910 10908 10908 10908 10908
10832 10824 10820 10814 10805 10797 10785 10771 10759 10749 10745 10748 10754 10765 10784 10791 10805 10813 10823 10828 10837 10844 10850 10859 10867 10874 10879 10884 10888 10889 10891 10894 10897 10899 10899 10900 10900 10900 10899 10903 10903 10901 10901 10903
10816 10806 10802 10795 10787 10778 10765 10752 10742 10732 10729 10732 10734 10752 10767 10771 10781 10796 10805 10818 10827 10833 10841 10849 10855 10861 10867 10873 10877 10881 10883 10885 10888 10890 10890 10891 10894 10893 10892 10895 10893 10894 10895 10897
10805 10791 10780 10773 10765 10757 10746 10735 10727 10720 10717 10717 10723 10737 10743 10755 10764 10778 10795 10805 10813 10822 10826 10832 10840 10847 10854 10862 10867 10871 10874 10876 10878 10880 10881 10883 10886 10886 10886 10886 10886 10886 10885 10887
10794 10777 10767 10752 10748 10739 10730 10720 10714 10709 10707 10710 10712 10723 10733 10740 10751 10766 10777 10789 10800 10809 10813 10822 10829 10835 10843 10851 10858 10862 10864 10866 10869 10870 10873 10874 10877 10879 10880 10879 10879 10881 10881 10880
10783 10769 10752 10741 10732 10723 10718 10711 10703 10699 10697 10697 10703 10714 10721 10727 10740 10751 10762 10776 10787 10795 10800 10810 10819 10827 10834 10841 10849 10854 10856 10859 10862 10864 10864 10868 10869 10871 10872 10871 10872 10873 10876 10875
10770 10757 10744 10730 10722 10711 10706 10698 10691 10689 10687 10687 10694 10698 10703 10714 10725 10738 10752 10764 10776 10784 10788 10800 10809 10816 10823 10830 10838 10843 10846 10850 10854 10858 10859 10860 10861 10862 10865 10864 10864 10865 10866 10864
10754 10744 10733 10721 10706 10702 10691 10688 10683 10679 10678 10680 10688 10685 10696 10699 10709 10724 10737 10749 10763 10772 10779 10789 10796 10803 10808 10816 10823 10828 10835 10840 10845 10846 10849 10848 10851 10853 10855 10857 10859 10859 10858 10856
10739 10729 10719 10707 10699 10694 10690 10680 10673 10670 10669 10673 10674 10674 10683 10694 10700 10708 10722 10739 10750 10757 10770 10779 10787 10793 10799 10807 10815 10821 10827 10833 10835 10837 10839 10841 10844 10844 10846 10848 10849 10851 10851 10848
10726 10716 10705 10690 10682 10679 10674 10668 10664 10660 10661 10663 10667 10671 10680 10687 10695 10703 10714 10727 10739 10749 10757 10767 10775 10781 10788 10799 10816 10814 10816 10822 10824 10829 10834 10829 10840 10839 10837 10838 10839 10841 10842 10840
10706 10701 10690 10674 10665 10666 10662 10657 10653 10651 10651 10655 10659 10667 10672 10683 10686 10696 10704 10713 10726 10735 10747 10761 10787 10779 10789 10795 10799 10802 10808 10809 10813 10819 10826 10837 10831 10830 10830 10829 10829 10831 10832 10832
10691 10687 10674 10660 10653 10653 10650 10647 10643 10642 10644 10648 10651 10657 10661 10673 10682 10688 10697 10708 10716 10724 10734 10746 10766 10778 10777 10779 10785 10787 10793 10798 10801 10808 10809 10812 10814 10817 10821 10819 10822 10821 10825 10825
10671 10670 10658 10647 10642 10642 10640 10637 10635 10635 10639 10643 10645 10650 10661 10669 10677 10687 10694 10699 10706 10714 10725 10737 10749 10756 10762 10763 10767 10775 10781 10779 10789 10794 10798 10801 10803 10806 10808 10809 10813 10816 10818 10817
10653 10649 10642 10634 10631 10631 10630 10628 10629 10635 10640 10641 10642 10648 10654 10661 10668 10678 10681 10688 10695 10701 10712 10720 10736 10739 10740 10742 10749 10758 10760 10765 10773 10780 10787 10791 10793 10793 10797 10799 10803 10808 10810 10810
10637 10631 10628 10622 10621 10622 10620 10621 10626 10631 10636 10637 10642 10646 10650 10657 10664 10671 10673 10678 10685 10691 10697 10706 10716 10724 10728 10734 10739 10744 10748 10756 10760 10765 10770 10775 10779 10782 10783 10786 10792 10795 10799 10800
10624 10619 10615 10608 10610 10615 10615 10619 10622 10627 10630 10634 10644 10645 10648 10652 10656 10660 10664 10670 10675 10682 10688 10693 10703 10710 10718 10724 10732 10738 10743 10750 10753 10757 10766 10770 10774 10776 10774 10777 10777 10781 10785 10786
10609 10607 10604 10602 10601 10607 10610 10613 10616 10621 10624 10631 10632 10636 10640 10644 10647 10652 10658 10663 10668 10673 10679 10683 10689 10699 10709 10716 10723 10728 10734 10739 10745 10750 10753 10752 10761 10761 10763 10765 10767 10771 10774 10774
10594 10593 10593 10592 10593 10596 10602 10604 10607 10612 10621 10624 10626 10630 10634 10639 10643 10647 10650 10654 10659 10664 10669 10674 10680 10686 10694 10704 10711 10718 10726 10733 10740 10742 10743 10746 10751 10755 10755 10759 10762 10762 10764 10761
10579 10580 10580 10582 10585 10588 10592 10597 10601 10604 10608 10614 10619 10624 10628 10631 10636 10640 10642 10644 10649 10653 10659 10664 10670 10676 10684 10693 10701 10709 10716 10722 10731 10735 10737 10737 10741 10743 10746 10749 10752 10750 10748 10748
10567 10567 10569 10571 10575 10580 10585 10589 10593 10598 10602 10608 10612 10616 10619 10623 10626 10629 10630 10634 10641 10646 10650 10655 10660 10666 10672 10680 10688 10698 10702 10711 10718 10724 10727 10730 10732 10735 10736 10735 10737 10737 10736 10737
10555 10558 10561 10567 10571 10575 10579 10584 10587 10591 10596 10602 10604 10607 10610 10613 10617 10621 10623 10628 10634 10639 10645 10648 10653 10658 10661 10669 10676 10683 10690 10697 10704 10709 10712 10718 10720 10721 10721 10722 10723 10724 10723 10723